Regional Weather Roundup
Issued by NWS Jackson, KY

Home | Current Version | Previous Version | Text Only | Print | Product List | Glossary Off
Versions: 1 2 3 4 5 6 7 8 9 10 11 12 13 14 15 16 17 18 19 20 21 22 23 24 25 26 27 28 29 30 31 32 33 34 35 36 37 38 39 40 41 42 43 44 45 46 47 48 49 50

000
ASUS43 KJKL 301910
RWRJKL

EAST KENTUCKY HOURLY WEATHER ROUNDUP
NATIONAL WEATHER SERVICE JACKSON KY
300 PM EDT SUN AUG 30 2015

NOTE: "FAIR" INDICATES FEW OR NO CLOUDS BELOW 12,000 FEET WITH
NO SIGNIFICANT WEATHER AND/OR OBSTRUCTIONS TO VISIBILITY.

* THESE REPORTS ARE NOT UNDER NWS QUALITY CONTROL AND MAY NOT
  REPORT WEATHER SUCH AS PRECIPITATION AND FOG.

KYZ079-080-083-085-087-088-110-112-115-119-120-302000
...EASTERN KENTUCKY...

CITY           SKY/WX    TMP DP  RH WIND       PRES   REMARKS
JACKSON        CLOUDY    80  65  59 CALM      30.16F
LONDON         CLOUDY    81  60  48 W6        30.16F
SOMERSET*      PTSUNNY   79  63  57 S3        30.15F
MONTICELLO*    CLOUDY    80  66  62 SW6       30.17F
WILLIAMSBURG*  SUNNY     77  63  61 CALM      30.16F
MIDDLESBORO*   CLOUDY    77  67  69 CALM      30.17S
HARLAN APT*      N/A     75  64  69 MISG      30.18F
HAZARD APT*    CLEAR     81  63  54 CALM      30.16F
BLACK MTN*       N/A     66  63  88 N3          N/A
PIKEVILLE APT* SUNNY     75  66  73 S3        30.18F
BIG SANDY*     CLOUDY    78  67  68 CALM      30.16F
MOREHEAD APT*  MOCLDY    81  66  61 VRB6      30.15F
$$

KYZ035-036-041-042-044-050-067-078-099-302000
...CENTRAL KENTUCKY...

CITY           SKY/WX    TMP DP  RH WIND       PRES   REMARKS
MT STERLING*   MOSUNNY   82  68  61 SW7       30.14F
FLEMING/MASON* MOSUNNY   84  68  58 S9        30.12F
DANVILLE*      MOSUNNY   84  66  54 SW10      30.14F
RICHMOND*      PTSUNNY   84  61  45 SW5       30.13F
LEXINGTON      PTSUNNY   85  66  53 S12       30.12F
FRANKFORT      PTSUNNY   83  65  54 W8        30.09F
$$

KYZ091>093-OHZ055-061-077-WVZ005-015-034-035-042-302000
...SOUTHERN OHIO/WEST VIRGINIA...

CITY           SKY/WX    TMP DP  RH WIND       PRES   REMARKS
COVINGTON      PTSUNNY   85  69  58 SW9       30.08F
COLUMBUS       PTSUNNY   83  68  60 S9        30.07F
DAYTON         MOSUNNY   85  69  58 SW9       30.08F
WILMINGTON     MOSUNNY   84  69  60 S9        30.09F
HUNTINGTON     PTSUNNY   84  64  50 S8        30.12F
CHARLESTON     PTSUNNY   82  67  60 S8        30.13F
PINEVILLE*     CLOUDY    78  67  69 MISG      30.23F
BECKLEY        CLOUDY    76  62  62 VRB3      30.21F
BLUEFIELD      CLOUDY    76  61  59 VRB3      30.25F
$$

VAZ002-007-008-TNZ017-027-036-066-071-302000
...SOUTHWEST VIRGINIA/EAST TENNESSEE...

CITY           SKY/WX    TMP DP  RH WIND       PRES   REMARKS
WISE*          CLOUDY    73  61  64 N5        30.25F
JONESVILLE*    CLOUDY    77  52  41 E6        30.20S
ABINGDON*      CLOUDY    80  58  48 S7        30.20F
BRISTOL        CLOUDY    80  62  54 CALM      30.17F
KNOXVILLE      CLOUDY    69  63  81 NE6       30.11F
OAK RIDGE      CLOUDY    80  65  59 VRB3      30.14F
CROSSVILLE     CLOUDY    78  59  51 NW5       30.18F
NASHVILLE      PTSUNNY   78  65  63 S12       30.13F
$$

...KEY TO REMARKS...
VSB - VISIBILITY IN MILES
WCI - WIND CHILL INDEX
HX  - HEAT INDEX

$$



USA.gov is the U.S. government's official web portal to all federal, state and local government web resources and services.